Hickory, NC

2:56 AM EST on February 11, 2016 (GMT -0500)
Hickory Regional

Weather History for KHKY - November, 2012

Change the Weather History Date:

Monday, November 19, 2012

  Actual Average Record
Temperature  
Mean Temperature 52 °F -  
Max Temperature 59 °F - - ()
Min Temperature 44 °F - - ()
Degree Days  
Heating Degree Days 14    
Growing Degree Days 2 (Base 50)    
Moisture  
Dew Point 41 °F    
Average Humidity 69    
Maximum Humidity 90    
Minimum Humidity 60    
Precipitation  
Precipitation 0.00 in - - ()
Sea Level Pressure  
Sea Level Pressure 30.26 in    
Wind  
Wind Speed 6 mph (NNE)    
Max Wind Speed 9 mph    
Max Gust Speed -    
Visibility 10 miles    
Events      
T = Trace of Precipitation, MM = Missing Value Source: NWS Daily Summary

Daily Weather History Graph

Daily Weather History Graph

Search for Another Location

Airport or City:

Trip Planner

Search our weather history database for the weather conditions in past years. The results will help you decide how hot, cold, wet, or windy it might be!

Date:

Astronomy

Nov. 19, 2012 Rise Set
Actual Time 7:05 AM EST 5:15 PM EST
Civil Twilight 6:38 AM EST 5:43 PM EST
Nautical Twilight 6:07 AM EST 6:14 PM EST
Astronomical Twilight 5:37 AM EST 6:44 PM EST
Moon 12:12 PM EST (11/19) 11:36 PM EST (11/19)
Length of Visible Light 11h 04m
Length of Day
10h 09m
Waxing Crescent, 40% of the Moon is Illuminated
Nov 19
Waxing Crescent
Nov 20
First Quarter
Nov 28
Full
Dec 6
Last Quarter
Dec 13
New

Hourly Weather History & Observations

Time (EST) Temp. Windchill Dew Point Humidity Pressure Visibility Wind Dir Wind Speed Gust Speed Precip Events Conditions
12:53 AM 48.9 °F - 36.0 °F 61% 30.34 in 10.0 mi North 8.1 mph - N/A   Overcast
1:28 AM 50.0 °F - 37.4 °F 62% 30.35 in 10.0 mi North 8.1 mph - N/A   Overcast
1:53 AM 50.0 °F - 37.0 °F 61% 30.31 in 10.0 mi NNE 8.1 mph - N/A   Overcast
2:46 AM 50.0 °F - 37.4 °F 62% 30.34 in 10.0 mi North 5.8 mph - N/A   Overcast
2:53 AM 50.0 °F - 37.9 °F 63% 30.31 in 10.0 mi North 5.8 mph - N/A   Overcast
3:05 AM 50.0 °F - 37.4 °F 62% 30.34 in 10.0 mi North 4.6 mph - N/A   Overcast
3:53 AM 48.9 °F - 39.0 °F 69% 30.30 in 10.0 mi North 5.8 mph - N/A   Overcast
4:53 AM 50.0 °F - 39.0 °F 66% 30.30 in 10.0 mi North 6.9 mph - N/A   Overcast
5:53 AM 50.0 °F - 39.9 °F 68% 30.30 in 10.0 mi North 6.9 mph - N/A   Overcast
6:53 AM 50.0 °F - 39.9 °F 68% 30.31 in 10.0 mi North 5.8 mph - N/A   Overcast
7:53 AM 50.0 °F - 41.0 °F 71% 30.31 in 10.0 mi North 6.9 mph - N/A   Overcast
8:53 AM 51.1 °F - 42.1 °F 71% 30.31 in 10.0 mi North 9.2 mph - N/A   Overcast
9:53 AM 52.0 °F - 42.1 °F 69% 30.31 in 10.0 mi North 8.1 mph - N/A   Overcast
10:53 AM 55.0 °F - 43.0 °F 64% 30.30 in 10.0 mi NE 5.8 mph - N/A   Overcast
11:53 AM 55.9 °F - 44.1 °F 64% 30.27 in 10.0 mi NNE 5.8 mph - N/A   Overcast
12:53 PM 55.9 °F - 44.1 °F 64% 30.24 in 10.0 mi Calm Calm - N/A   Overcast
1:53 PM 57.9 °F - 45.0 °F 62% 30.22 in 10.0 mi NE 5.8 mph - N/A   Overcast
2:53 PM 59.0 °F - 45.0 °F 60% 30.19 in 10.0 mi East 9.2 mph - N/A   Scattered Clouds
3:53 PM 57.9 °F - 45.0 °F 62% 30.20 in 10.0 mi East 3.5 mph - N/A   Partly Cloudy
4:53 PM 55.9 °F - 45.0 °F 67% 30.19 in 10.0 mi Calm Calm - N/A   Clear
5:53 PM 53.1 °F - 44.1 °F 71% 30.20 in 10.0 mi East 3.5 mph - N/A   Clear
6:53 PM 52.0 °F - 44.1 °F 74% 30.20 in 10.0 mi Calm Calm - N/A   Clear
7:53 PM 50.0 °F - 43.0 °F 77% 30.19 in 10.0 mi NE 3.5 mph - N/A   Clear
8:53 PM 48.0 °F - 44.1 °F 86% 30.20 in 10.0 mi Calm Calm - N/A   Clear
9:53 PM 45.0 °F - 42.1 °F 90% 30.19 in 10.0 mi Calm Calm - N/A   Clear
10:53 PM 44.1 °F 42.5 °F 41.0 °F 89% 30.18 in 10.0 mi North 3.5 mph - N/A   Clear
11:53 PM 44.1 °F - 41.0 °F 89% 30.18 in 10.0 mi Calm Calm - N/A   Clear